When you browse on this site, cookies collect data to enhance your experience and personalize the content and advertising you see.
Visit our Privacy Policy to learn more. By continuing to use the site, you agree to this use of cookies and data.
  • In Switzerland
  • List of Countries
  • For 7 days
  • Water Temperature
  • Satellite Maps
  • Weather Map
  • Weather Widgets
  • user-avatar
    Login

    Hourly Weather Straubing

    Today, 23 July, Tuesday

    Time Temperature Precipitation Wind Pressure Humidity
    00:00 +20°C° 0 mm 1 mps 739 mmHg 72%
    01:00 +20°C° 0 mm 1 mps 739 mmHg 76%
    02:00 +20°C° 0 mm 1 mps 739 mmHg 77%
    03:00 +19°C° 0 mm 1 mps 739 mmHg 79%
    04:00 +17°C° 0 mm 0 mps 739 mmHg 80%
    05:00 +18°C° 0 mm 0 mps 739 mmHg 78%
    06:00 +20°C° 0 mm 0 mps 739 mmHg 75%
    07:00 +21°C° 0 mm 0 mps 739 mmHg 72%
    08:00 +23°C° 0 mm 0 mps 739 mmHg 67%
    09:00 +27°C° 0 mm 1 mps 739 mmHg 62%
    10:00 +28°C° 0 mm 1 mps 739 mmHg 56%
    11:00 +29°C° 0 mm 1 mps 739 mmHg 54%
    12:00 +30°C° 0 mm 1 mps 738 mmHg 51%
    13:00 +31°C° 0 mm 1 mps 738 mmHg 48%
    14:00 +31°C° 0 mm 1 mps 738 mmHg 48%
    15:00 +31°C° 0 mm 1 mps 738 mmHg 48%
    16:00 +31°C° 0 mm 1 mps 737 mmHg 48%
    17:00 +30°C° 0 mm 1 mps 737 mmHg 55%
    18:00 +29°C° 0 mm 1 mps 737 mmHg 61%
    19:00 +27°C° 0 mm 1 mps 737 mmHg 68%
    20:00 +26°C° 0 mm 1 mps 737 mmHg 70%
    21:00 +24°C° 0 mm 1 mps 737 mmHg 73%
    22:00 +23°C° 0 mm 1 mps 737 mmHg 75%
    23:00 +22°C° 0 mm 1 mps 737 mmHg 77%

    Tomorrow, 24 July, Wednesday

    Time Temperature Precipitation Wind Pressure Humidity
    00:00 +22°C° 0 mm 1 mps 737 mmHg 78%
    01:00 +21°C° 0 mm 1 mps 736 mmHg 79%
    02:00 +21°C° 0 mm 1 mps 736 mmHg 80%
    03:00 +20°C° 0 mm 1 mps 736 mmHg 81%
    04:00 +20°C° 0 mm 1 mps 736 mmHg 81%
    05:00 +21°C° 0 mm 1 mps 736 mmHg 78%
    06:00 +22°C° 0 mm 1 mps 736 mmHg 75%
    07:00 +24°C° 0 mm 1 mps 736 mmHg 72%
    08:00 +26°C° 0 mm 1 mps 736 mmHg 66%
    09:00 +27°C° 0 mm 1 mps 736 mmHg 61%
    10:00 +29°C° 0 mm 1 mps 736 mmHg 55%
    11:00 +30°C° 0 mm 1 mps 736 mmHg 52%
    12:00 +31°C° 0 mm 1 mps 736 mmHg 49%
    13:00 +32°C° 0 mm 1 mps 735 mmHg 46%
    14:00 +32°C° 0 mm 1 mps 735 mmHg 46%
    15:00 +32°C° 0 mm 1 mps 735 mmHg 45%
    16:00 +32°C° 0 mm 1 mps 735 mmHg 44%
    17:00 +31°C° 0 mm 1 mps 735 mmHg 51%
    18:00 +28°C° 0 mm 0 mps 735 mmHg 57%
    19:00 +26°C° 0 mm 0 mps 735 mmHg 64%
    20:00 +25°C° 0 mm 0 mps 735 mmHg 66%
    21:00 +25°C° 0 mm 1 mps 736 mmHg 68%
    22:00 +24°C° 0 mm 1 mps 736 mmHg 70%
    23:00 +23°C° 0 mm 1 mps 736 mmHg 73%

    Day after tomorrow, 25 July, Thursday

    Time Temperature Precipitation Wind Pressure Humidity
    00:00 +23°C° 0 mm 1 mps 736 mmHg 76%
    01:00 +22°C° 0 mm 1 mps 736 mmHg 79%
    02:00 +22°C° 0 mm 1 mps 736 mmHg 80%
    03:00 +21°C° 0 mm 1 mps 736 mmHg 81%
    04:00 +21°C° 0 mm 1 mps 736 mmHg 82%
    05:00 +22°C° 0 mm 1 mps 736 mmHg 79%
    06:00 +23°C° 0 mm 1 mps 736 mmHg 75%
    07:00 +22°C° 0 mm 0 mps 736 mmHg 72%
    08:00 +26°C° 0 mm 1 mps 736 mmHg 66%
    09:00 +28°C° 0 mm 1 mps 736 mmHg 61%
    10:00 +30°C° 0 mm 1 mps 736 mmHg 55%
    11:00 +31°C° 0 mm 1 mps 736 mmHg 52%
    12:00 +32°C° 0 mm 1 mps 735 mmHg 49%
    13:00 +33°C° 0 mm 1 mps 735 mmHg 45%
    14:00 +33°C° 0 mm 1 mps 735 mmHg 45%
    15:00 +34°C° 0 mm 2 mps 735 mmHg 44%
    16:00 +34°C° 0 mm 2 mps 734 mmHg 44%
    17:00 +32°C° 0 mm 2 mps 734 mmHg 50%
    18:00 +30°C° 0 mm 2 mps 734 mmHg 56%
    19:00 +28°C° 0 mm 2 mps 734 mmHg 63%
    20:00 +27°C° 0 mm 2 mps 734 mmHg 64%
    21:00 +25°C° 0 mm 2 mps 734 mmHg 66%
    22:00 +24°C° 0 mm 2 mps 734 mmHg 68%
    23:00 +23°C° 0 mm 1 mps 734 mmHg 68%

    26 July, Friday

    Time Temperature Precipitation Wind Pressure Humidity
    00:00 +22°C° 0 mm 1 mps 734 mmHg 69%
    01:00 +22°C° 0 mm 1 mps 734 mmHg 69%
    02:00 +21°C° 0 mm 1 mps 733 mmHg 70%
    03:00 +21°C° 0 mm 1 mps 733 mmHg 71%
    04:00 +20°C° 0 mm 1 mps 733 mmHg 71%
    05:00 +21°C° 0 mm 1 mps 733 mmHg 70%
    06:00 +23°C° 0 mm 1 mps 733 mmHg 69%
    07:00 +24°C° 0 mm 1 mps 733 mmHg 68%
    08:00 +26°C° 0 mm 1 mps 733 mmHg 63%
    09:00 +28°C° 0 mm 1 mps 733 mmHg 57%
    10:00 +30°C° 0 mm 1 mps 733 mmHg 51%
    11:00 +30°C° 0 mm 1 mps 732 mmHg 47%
    12:00 +31°C° 0 mm 1 mps 732 mmHg 44%
    13:00 +32°C° 0 mm 2 mps 731 mmHg 41%
    14:00 +32°C° 0 mm 2 mps 731 mmHg 41%
    15:00 +32°C° 0 mm 2 mps 731 mmHg 42%
    16:00 +32°C° 0 mm 2 mps 730 mmHg 42%
    17:00 +30°C° 0 mm 3 mps 730 mmHg 50%
    18:00 +28°C° 0 mm 3 mps 730 mmHg 57%
    19:00 +27°C° 0 mm 3 mps 730 mmHg 64%
    20:00 +25°C° 0 mm 3 mps 730 mmHg 67%
    21:00 +24°C° 0 mm 2 mps 730 mmHg 70%
    22:00 +21°C° 0 mm 2 mps 730 mmHg 73%
    23:00 +20°C° 0 mm 2 mps 730 mmHg 75%

    27 July, Saturday

    Time Temperature Precipitation Wind Pressure Humidity
    00:00 +20°C° 0 mm 2 mps 729 mmHg 77%
    01:00 +19°C° 0 mm 2 mps 729 mmHg 78%
    02:00 +18°C° 0 mm 2 mps 729 mmHg 79%
    03:00 +18°C° 0 mm 2 mps 728 mmHg 79%
    04:00 +18°C° 0 mm 2 mps 728 mmHg 80%
    05:00 +19°C° 0 mm 2 mps 728 mmHg 77%
    06:00 +20°C° 0 mm 2 mps 728 mmHg 75%
    07:00 +21°C° 0 mm 2 mps 728 mmHg 72%
    08:00 +23°C° 0 mm 2 mps 728 mmHg 65%
    09:00 +25°C° 0 mm 2 mps 728 mmHg 59%
    10:00 +27°C° 0 mm 3 mps 728 mmHg 52%
    11:00 +28°C° 0 mm 3 mps 727 mmHg 50%
    12:00 +28°C° 0 mm 3 mps 727 mmHg 47%
    13:00 +29°C° 0 mm 3 mps 727 mmHg 45%
    14:00 +29°C° 0 mm 3 mps 726 mmHg 46%
    15:00 +29°C° 0 mm 4 mps 726 mmHg 47%
    16:00 +29°C° 0 mm 4 mps 726 mmHg 48%
    17:00 +28°C° 0 mm 4 mps 726 mmHg 53%
    18:00 +26°C° 0 mm 4 mps 726 mmHg 59%
    19:00 +25°C° 0 mm 4 mps 726 mmHg 65%
    20:00 +24°C° 0 mm 3 mps 726 mmHg 67%
    21:00 +22°C° 0 mm 3 mps 726 mmHg 69%
    22:00 +21°C° 0 mm 3 mps 726 mmHg 71%
    23:00 +20°C° 0 mm 3 mps 726 mmHg 72%

    28 July, Sunday

    Time Temperature Precipitation Wind Pressure Humidity
    00:00 +20°C° 0 mm 2 mps 726 mmHg 74%
    01:00 +19°C° 0 mm 2 mps 726 mmHg 75%
    02:00 +18°C° 0 mm 2 mps 726 mmHg 77%
    03:00 +18°C° 0 mm 2 mps 726 mmHg 79%
    04:00 +17°C° 0 mm 2 mps 725 mmHg 81%
    05:00 +18°C° 0 mm 2 mps 726 mmHg 79%
    06:00 +19°C° 0 mm 2 mps 726 mmHg 76%
    07:00 +20°C° 0 mm 2 mps 726 mmHg 74%
    08:00 +23°C° 0 mm 2 mps 727 mmHg 68%
    09:00 +25°C° 0 mm 2 mps 727 mmHg 62%
    10:00 +27°C° 0 mm 3 mps 727 mmHg 56%
    11:00 +28°C° 0.1 mm 3 mps 727 mmHg 55%
    12:00 +28°C° 0.1 mm 3 mps 727 mmHg 54%
    13:00 +29°C° 0.1 mm 3 mps 727 mmHg 52%
    14:00 +29°C° 0.2 mm 2 mps 727 mmHg 54%
    15:00 +28°C° 0.2 mm 2 mps 727 mmHg 56%
    16:00 +28°C° 0.2 mm 2 mps 728 mmHg 57%
    17:00 +27°C° 0.8 mm 2 mps 728 mmHg 66%
    18:00 +25°C° 0.8 mm 2 mps 728 mmHg 74%
    19:00 +24°C° 0.8 mm 2 mps 728 mmHg 83%
    20:00 +23°C° 0.3 mm 1 mps 729 mmHg 84%
    21:00 +22°C° 0.3 mm 1 mps 729 mmHg 86%
    22:00 +21°C° 0.3 mm 1 mps 730 mmHg 87%
    23:00 +20°C° 0 mm 1 mps 730 mmHg 89%
    Show more